Location: Cincinnati Observatory Center
(39.1389°N, 84.4225°W)
Time: 15:08:27
(UTC-04:00)

Amateur Radio Satellites - All Passes

Search period start: 19 April 2015 14:38
Search period end: 20 April 2015 14:38
Location: Cincinnati Observatory Center, 39.1389°N, 84.4225°W

Satellite Date Start Highest point End Downlink Frequencies (MHz)
Time Altitude Azimuth
Cosmos 2504 19 Apr 14:44:10 14:52:34 54° 91° (E) 15:01:08 435.465 / 435.565
AIST 1 19 Apr 14:56:59 14:59:12 14° 273° (W) 15:01:12
SO-50 19 Apr 14:58:52 15:03:18 42° 308° (NW) 15:07:53 436.795
ITUPSAT 1 19 Apr 15:09:43 15:14:26 59° 101° (E) 15:19:08 437.325
JAS-2 19 Apr 15:14:16 15:19:12 19° 60° (ENE) 15:24:27 435.910
TISAT 1 19 Apr 15:14:53 15:17:40 17° 293° (WNW) 15:20:18 437.305
SPROUT 19 Apr 15:19:07 15:21:09 13° 294° (WNW) 15:22:59 437.525
AO-7 19 Apr 15:33:02 15:40:00 33° 60° (ENE) 15:47:09 29.400- 29.500
ISS 19 Apr 15:34:29 15:37:44 74° 321° (NW) 15:41:00 145.825
STARS 19 Apr 15:34:50 15:36:15 12° 89° (E) 15:37:55 437.465
HORYU 2 19 Apr 15:38:02 15:41:39 25° 69° (ENE) 15:45:23 437.375
BEESAT 19 Apr 15:45:12 15:49:54 58° 286° (WNW) 15:54:33 436.000
BEESAT 2 19 Apr 15:46:15 15:48:59 17° 249° (WSW) 15:51:33 435.950
SWISSCUBE 19 Apr 15:46:33 15:51:11 51° 287° (WNW) 15:55:46 437.505
Oscar 19 19 Apr 15:48:43 15:51:23 14° 271° (W) 15:53:46 437.125/150
Gurwin Techsat 1B 19 Apr 15:53:22 15:58:28 47° 261° (W) 16:03:35 435.225
RS-15 19 Apr 15:54:04 16:04:21 53° 112° (ESE) 16:14:56 29.354- 29.394
BEESAT 3 19 Apr 15:55:14 15:56:35 11° 251° (WSW) 15:57:42 437.485
KKS-1 19 Apr 15:57:24 16:01:29 34° 97° (E) 16:05:35 437.445
AIST 2 19 Apr 16:02:33 16:06:28 35° 245° (WSW) 16:10:14 435.215
ITAMSAT 1 19 Apr 16:05:23 16:09:56 30° 264° (W) 16:14:25 435.822/435.867
Cosmos 2504 19 Apr 16:38:27 16:46:21 34° 290° (WNW) 16:54:08 435.465 / 435.565
ITUPSAT 1 19 Apr 16:49:11 16:51:54 15° 296° (WNW) 16:54:25 437.325
JAS-2 19 Apr 16:55:32 17:03:19 88° 76° (ENE) 17:11:12 435.910
STARS 19 Apr 17:08:47 17:13:10 60° 286° (WNW) 17:17:32 437.465
MOZHAYETS 4 19 Apr 17:11:43 17:13:59 14° 89° (E) 17:16:29
ISS 19 Apr 17:12:32 17:14:35 15° 341° (NNW) 17:16:35 145.825
HORYU 2 19 Apr 17:14:19 17:18:13 29° 264° (W) 17:22:06 437.375
AO-7 19 Apr 17:24:20 17:32:27 57° 258° (WSW) 17:40:35 29.400- 29.500
KKS-1 19 Apr 17:34:30 17:37:56 21° 292° (WNW) 17:41:17 437.445
GONETS M04 19 Apr 17:46:22 17:54:40 52° 90° (E) 18:03:08
CUTE-I 19 Apr 18:04:05 18:08:04 23° 66° (ENE) 18:12:11 437.470
RS-15 19 Apr 18:06:35 18:16:59 46° 315° (NW) 18:27:33 29.354- 29.394
Cubesat XI-IV 19 Apr 18:11:11 18:15:30 26° 67° (ENE) 18:19:56 437.490
PCSat 19 Apr 18:12:51 18:14:40 12° 39° (NE) 18:16:44 145.827
JAS-2 19 Apr 18:44:08 18:49:20 18° 274° (W) 18:54:07 435.910
MOZHAYETS 4 19 Apr 18:47:08 18:51:37 53° 287° (WNW) 18:56:04
AUBIESAT-1 19 Apr 18:50:35 18:52:13 12° 92° (E) 18:54:02 437.475
DANDE 19 Apr 19:04:19 19:07:00 41° 94° (E) 19:10:16 436.750
CUSAT 1 19 Apr 19:09:17 19:12:16 85° 100° (E) 19:16:05 437.405
Cosmos 2499 19 Apr 19:26:45 19:34:41 41° 88° (E) 19:42:45 435.465 / 435.565
M-CUBED/EXP-1 PRIME 19 Apr 19:34:26 19:38:42 47° 103° (ESE) 19:42:38 437.505
VERMONT LUNAR 19 Apr 19:42:12 19:44:50 21° 150° (SSE) 19:47:30 437.305
CUTE-I 19 Apr 19:42:46 19:47:53 45° 261° (W) 19:52:59 437.470
GONETS M04 19 Apr 19:44:07 19:51:54 33° 290° (WNW) 19:59:34
Cubesat XI-IV 19 Apr 19:50:29 19:55:28 38° 263° (W) 20:00:24 437.490
PCSat 19 Apr 19:53:49 19:59:14 67° 59° (ENE) 20:04:38 145.827
CUBESAT XI-V 19 Apr 20:04:09 20:08:47 77° 102° (ESE) 20:13:22 437.345
PRISM 19 Apr 20:19:55 20:24:01 73° 102° (ESE) 20:28:06 437.425
AUBIESAT-1 19 Apr 20:23:15 20:27:33 53° 292° (WNW) 20:31:29 437.475
RS-15 19 Apr 20:25:51 20:33:20 19° 347° (NNW) 20:40:48 29.354- 29.394
ISS 19 Apr 20:27:17 20:29:30 17° 21° (NNE) 20:31:44 145.825
CANX-2 19 Apr 20:29:27 20:32:01 16° 67° (ENE) 20:34:45 2200.000
DOVE 4 19 Apr 20:30:36 20:32:15 12° 65° (ENE) 20:34:09 437.250
SEEDS 19 Apr 20:33:17 20:35:12 13° 66° (ENE) 20:37:21 437.485
BRITE-PL 19 Apr 20:34:36 20:38:17 32° 72° (ENE) 20:42:02 437.365/2234.400
CUTE 1.7 + AOD 2 19 Apr 20:39:15 20:42:11 19° 68° (ENE) 20:45:14 437.475
HO-68 19 Apr 20:39:40 20:46:09 39° 66° (ENE) 20:52:46 435.675
PHONESAT 2.4 19 Apr 20:40:46 20:43:38 23° 150° (SSE) 20:46:32 2401.200-2431.200
STRAND 1 19 Apr 20:41:06 20:46:14 81° 103° (ESE) 20:51:20 437.568
GOMX 1 19 Apr 20:56:42 21:00:29 36° 72° (ENE) 21:04:24 467.674
AAUSAT CUBESAT 2 19 Apr 21:05:36 21:08:42 21° 69° (ENE) 21:11:55 437.432
M-CUBED/EXP-1 PRIME 19 Apr 21:10:19 21:13:09 16° 300° (WNW) 21:15:44 437.505
VERMONT LUNAR 19 Apr 21:18:42 21:22:06 79° 166° (SSE) 21:25:30 437.305
Cosmos 2499 19 Apr 21:19:24 21:27:48 45° 286° (WNW) 21:36:05 435.465 / 435.565
Oscar 11 19 Apr 21:21:54 21:24:24 16° 67° (ENE) 21:27:05 145.826/435.025
DELFI C3 19 Apr 21:26:32 21:28:00 12° 66° (ENE) 21:29:40 145.870
PCSat 19 Apr 21:38:58 21:42:09 15° 255° (WSW) 21:45:05 145.827
YUBILEINY 19 Apr 21:42:38 21:46:13 13° 57° (ENE) 21:50:27 435.215
CUBESAT XI-V 19 Apr 21:44:28 21:45:40 11° 296° (WNW) 21:46:35 437.345
COMPASS 1 19 Apr 21:51:28 21:55:42 82° 77° (ENE) 21:59:58 437.405
UWE-3 19 Apr 21:51:30 21:54:41 21° 68° (ENE) 21:58:04 435.000/436.395/437.385
SO-50 19 Apr 21:51:30 21:55:00 19° 43° (NE) 21:58:36 436.795
CINEMA 3 19 Apr 22:02:02 22:06:12 66° 76° (ENE) 22:10:34 145.822/145.860
ISS 19 Apr 22:02:59 22:06:15 86° 219° (SW) 22:09:29 145.825
CANX-2 19 Apr 22:03:33 22:07:38 43° 262° (W) 22:11:46 2200.000
DOVE 4 19 Apr 22:05:32 22:09:36 53° 261° (W) 22:13:48 437.250
SEEDS 19 Apr 22:06:26 22:10:36 53° 261° (W) 22:14:49 437.485
CUTE 1.7 + AOD 2 19 Apr 22:13:53 22:17:52 36° 263° (W) 22:21:51 437.475
BRITE-PL 19 Apr 22:14:09 22:17:01 17° 268° (W) 22:19:45 437.365/2234.400
PHONESAT 2.4 19 Apr 22:18:03 22:21:38 80° 165° (SSE) 22:25:13 2401.200-2431.200
FUNcube-1 19 Apr 22:18:31 22:22:19 33° 71° (ENE) 22:26:15 145.935
STRAND 1 19 Apr 22:22:43 22:24:50 12° 298° (WNW) 22:26:41 437.568
VELOX 1 19 Apr 22:25:13 22:26:56 12° 65° (ENE) 22:28:51 145.980
HO-68 19 Apr 22:27:14 22:33:53 39° 263° (W) 22:40:30 435.675
UKube-1 19 Apr 22:35:06 22:38:56 33° 71° (ENE) 22:42:50 .
GOMX 1 19 Apr 22:36:14 22:38:54 16° 269° (W) 22:41:26 467.674
AISAT 19 Apr 22:39:00 22:41:56 18° 67° (ENE) 22:44:59 437.250
50 SAT 19 Apr 22:40:17 22:42:47 17° 68° (ENE) 22:45:26 437.505
AAUSAT CUBESAT 2 19 Apr 22:40:24 22:44:10 31° 264° (W) 22:47:56 437.432
ZACube-1 19 Apr 22:40:39 22:44:51 60° 75° (ENE) 22:49:11 437.345
RS-15 19 Apr 22:43:13 22:51:28 23° 22° (NNE) 23:00:16 29.354- 29.394
CUBEBUG 2 19 Apr 22:46:17 22:50:32 75° 259° (WSW) 22:54:56 437.445
CUBEBUG 1 19 Apr 22:51:20 22:52:05 11° 64° (ENE) 22:53:05 437.445
ESTCUBE 1 19 Apr 22:55:09 22:57:30 15° 66° (ENE) 23:00:04 437.505/2401.250
Oscar 11 19 Apr 22:56:04 23:00:15 46° 262° (W) 23:04:28 145.826/435.025
VERMONT LUNAR 19 Apr 22:56:21 22:59:44 67° 2° (N) 23:03:05 437.305
DELFI C3 19 Apr 22:58:43 23:02:44 54° 260° (W) 23:06:46 145.870
DX 1 19 Apr 23:17:58 23:22:18 75° 258° (WSW) 23:26:39 434.975-435.025
Cosmos 2491 19 Apr 23:22:43 23:29:53 31° 85° (E) 23:37:20 435.465 / 435.565
UWE-3 19 Apr 23:27:15 23:31:04 31° 264° (W) 23:34:58 435.000/436.395/437.385
TIGRISAT 19 Apr 23:30:01 23:33:51 25° 94° (E) 23:37:45 435.000
HUMSAT D 19 Apr 23:30:02 23:34:12 77° 258° (WSW) 23:38:27 437.325/437.525
SO-50 19 Apr 23:31:07 23:36:02 64° 242° (WSW) 23:40:52 436.795
UNISAT 6 19 Apr 23:31:08 23:35:04 26° 94° (E) 23:39:04 437.425
YUBILEINY 19 Apr 23:36:17 23:45:04 72° 81° (E) 23:53:46 435.215
O/OREOS (USA 219) 19 Apr 23:42:57 23:46:33 24° 103° (ESE) 23:50:15 437.305
POLYITAN 1 19 Apr 23:43:32 23:46:07 16° 91° (E) 23:48:54 437.675
DUCHIFAT 1 19 Apr 23:52:34 23:55:36 19° 93° (E) 23:58:45 145.980
FUNcube-1 19 Apr 23:55:34 23:58:47 20° 268° (W) 00:01:55 145.935
PHONESAT 2.4 19 Apr 23:56:25 00:00:00 69° 2° (N) 00:03:33 2401.200-2431.200
VELOX 1 19 Apr 23:58:41 00:03:02 61° 259° (W) 00:07:24 145.980
QB50P1 20 Apr 00:05:11 00:08:51 27° 95° (E) 00:12:33 145.935-145.965
UKube-1 20 Apr 00:11:55 00:15:10 20° 266° (W) 00:18:21 .
ANTELSAT 20 Apr 00:12:21 00:17:06 73° 102° (ESE) 00:21:46 437.575/2403.000
50 SAT 20 Apr 00:13:43 00:17:23 35° 263° (W) 00:21:04 437.505
AISAT 20 Apr 00:14:08 00:18:16 39° 262° (W) 00:22:24 437.250
BUGSAT 1 20 Apr 00:16:52 00:20:14 25° 95° (E) 00:23:43 437.445
ZACube-1 20 Apr 00:20:35 00:21:45 11° 273° (W) 00:22:38 437.345
CUBEBUG 1 20 Apr 00:23:37 00:27:57 71° 258° (WSW) 00:32:17 437.445
QB50P2 20 Apr 00:28:25 00:32:38 52° 100° (E) 00:36:50 145.880/145.840
ESTCUBE 1 20 Apr 00:29:33 00:33:59 54° 260° (W) 00:38:26 437.505/2401.250
TISAT 1 20 Apr 00:29:44 00:33:12 26° 70° (ENE) 00:36:45 437.305
VERMONT LUNAR 20 Apr 00:33:57 00:37:18 64° 199° (SSW) 00:40:38 437.305
SPROUT 20 Apr 00:34:27 00:38:21 37° 72° (ENE) 00:42:20 437.525
Cosmos 2504 20 Apr 00:40:35 00:45:15 17° 60° (ENE) 00:50:11 435.465 / 435.565
NANOSAT C BR1 20 Apr 00:51:14 00:55:32 86° 284° (WNW) 00:59:49 145.865
POPSAT HIP 1 20 Apr 00:51:21 00:55:40 85° 284° (WNW) 00:59:57 437.405
RS-15 20 Apr 00:55:44 01:07:05 60° 51° (NE) 01:18:59 29.354- 29.394
TIGRISAT 20 Apr 01:06:25 01:10:38 32° 290° (WNW) 01:14:45 435.000
UNISAT 6 20 Apr 01:07:42 01:11:51 30° 290° (WNW) 01:15:54 437.425
BEESAT 20 Apr 01:15:06 01:17:45 15° 65° (ENE) 01:20:36 436.000
SWISSCUBE 20 Apr 01:16:06 01:19:05 17° 66° (ENE) 01:22:14 437.505
Cosmos 2491 20 Apr 01:17:53 01:26:23 54° 284° (WNW) 01:34:54 435.465 / 435.565
POLYITAN 1 20 Apr 01:18:12 01:22:16 41° 287° (WNW) 01:26:19 437.675
O/OREOS (USA 219) 20 Apr 01:21:43 01:25:51 32° 299° (WNW) 01:29:56 437.305
DUCHIFAT 1 20 Apr 01:27:40 01:31:31 33° 289° (WNW) 01:35:21 145.980
YUBILEINY 20 Apr 01:34:40 01:41:07 22° 278° (W) 01:47:07 435.215
PHONESAT 2.4 20 Apr 01:34:45 01:38:18 64° 199° (SSW) 01:41:49 2401.200-2431.200
QB50P1 20 Apr 01:41:09 01:44:38 24° 291° (WNW) 01:48:02 145.935-145.965
AIST 1 20 Apr 01:46:27 01:50:06 27° 91° (E) 01:53:48
ANTELSAT 20 Apr 01:51:24 01:53:19 12° 296° (WNW) 01:55:00 437.575/2403.000
BUGSAT 1 20 Apr 01:52:18 01:55:40 24° 290° (WNW) 01:59:00 437.445
TISAT 1 20 Apr 02:05:33 02:08:58 23° 266° (W) 02:12:20 437.305
QB50P2 20 Apr 02:05:55 02:08:08 14° 294° (WNW) 02:10:10 145.880/145.840
SPROUT 20 Apr 02:11:44 02:14:38 17° 268° (W) 02:17:24 437.525
VERMONT LUNAR 20 Apr 02:12:20 02:14:28 16° 213° (SSW) 02:16:32 437.305
ITUPSAT 1 20 Apr 02:15:19 02:20:03 60° 74° (ENE) 02:24:48 437.325
Oscar 19 20 Apr 02:19:38 02:23:52 26° 94° (E) 02:28:12 437.125/150
Cosmos 2504 20 Apr 02:31:54 02:40:11 90° 79° (ENE) 02:47:48 435.465 / 435.565
ITAMSAT 1 20 Apr 02:41:59 02:43:27 11° 88° (E) 02:45:15 435.822/435.867
BEESAT 20 Apr 02:50:28 02:55:11 57° 260° (W) 02:59:55 436.000
SWISSCUBE 20 Apr 02:51:55 02:56:35 51° 260° (W) 03:01:16 437.505
KKS-1 20 Apr 02:54:49 02:58:33 28° 69° (ENE) 03:02:22 437.445
RS-15 20 Apr 03:08:40 03:19:16 41° 251° (WSW) 03:29:59 29.354- 29.394
PHONESAT 2.4 20 Apr 03:13:52 03:16:12 16° 213° (SSW) 03:18:26 2401.200-2431.200
AIST 1 20 Apr 03:24:20 03:27:47 22° 287° (WNW) 03:31:07
ITUPSAT 1 20 Apr 03:56:00 03:58:26 13° 271° (W) 04:00:36 437.325
Oscar 19 20 Apr 03:58:33 04:03:19 37° 290° (WNW) 04:08:02 437.125/150
GONETS M04 20 Apr 03:58:34 04:05:15 24° 65° (ENE) 04:12:14
STARS 20 Apr 04:04:23 04:08:45 79° 258° (WSW) 04:13:10 437.465
CUSAT 1 20 Apr 04:04:48 04:07:21 12° 62° (ENE) 04:10:37 437.405
BEESAT 3 20 Apr 04:08:52 04:11:00 14° 110° (ESE) 04:13:18 437.485
Gurwin Techsat 1B 20 Apr 04:10:23 04:15:43 77° 102° (ESE) 04:21:03 435.225
JAS-2 20 Apr 04:11:31 04:13:14 11° 82° (E) 04:15:23 435.910
MOZHAYETS 4 20 Apr 04:13:29 04:15:26 13° 65° (ENE) 04:17:38
ITAMSAT 1 20 Apr 04:18:28 04:23:39 77° 286° (WNW) 04:28:49 435.822/435.867
Cosmos 2504 20 Apr 04:27:58 04:32:25 15° 281° (WNW) 04:36:11 435.465 / 435.565
KKS-1 20 Apr 04:31:29 04:35:10 25° 265° (W) 04:38:49 437.445
HORYU 2 20 Apr 05:06:00 05:10:28 58° 101° (E) 05:14:53 437.375
Cosmos 2499 20 Apr 05:23:32 05:25:04 11° 55° (NE) 05:27:11 435.465 / 435.565
AO-7 20 Apr 05:26:52 05:34:58 54° 102° (ESE) 05:43:06 29.400- 29.500
AUBIESAT-1 20 Apr 05:36:13 05:39:21 18° 61° (ENE) 05:42:41 437.475
BEESAT 2 20 Apr 05:37:39 05:41:44 70° 303° (WNW) 05:45:54 435.950
DANDE 20 Apr 05:41:50 05:48:28 52° 77° (ENE) 05:56:31 436.750
CUSAT 1 20 Apr 05:44:09 05:51:11 67° 79° (E) 05:59:25 437.405
BEESAT 3 20 Apr 05:44:42 05:48:39 48° 305° (NW) 05:52:40 437.485
MOZHAYETS 4 20 Apr 05:47:34 05:52:11 65° 260° (W) 05:56:49
Gurwin Techsat 1B 20 Apr 05:52:25 05:55:08 14° 298° (WNW) 05:57:35 435.225
JAS-2 20 Apr 05:52:58 05:59:43 88° 101° (E) 06:05:36 435.910
GONETS M04 20 Apr 05:54:15 06:03:04 72° 266° (W) 06:11:48
AIST 2 20 Apr 05:58:51 06:03:02 62° 118° (ESE) 06:07:18 435.215
STRAND 1 20 Apr 06:20:20 06:22:21 13° 62° (ENE) 06:24:38 437.568
M-CUBED/EXP-1 PRIME 20 Apr 06:20:47 06:25:21 55° 69° (ENE) 06:30:07 437.505
JUGNU 20 Apr 06:22:06 06:23:20 11° 179° (S) 06:24:36 437.505
Cubesat XI-IV 20 Apr 06:32:33 06:32:47 10° 87° (E) 06:33:28 437.490
HORYU 2 20 Apr 06:44:20 06:46:40 14° 295° (WNW) 06:48:48 437.375
CUBESAT XI-V 20 Apr 07:06:16 07:10:52 65° 75° (ENE) 07:15:29 437.345
PRISM 20 Apr 07:08:55 07:12:54 45° 73° (ENE) 07:16:55 437.425
AUBIESAT-1 20 Apr 07:09:10 07:13:44 53° 256° (WSW) 07:18:28 437.475
Cosmos 2499 20 Apr 07:12:23 07:20:21 67° 79° (E) 07:27:43 435.465 / 435.565
AO-7 20 Apr 07:20:12 07:27:29 34° 299° (WNW) 07:34:37 29.400- 29.500
DANDE 20 Apr 07:25:33 07:31:39 31° 268° (W) 07:38:30 436.750
CUSAT 1 20 Apr 07:27:57 07:33:42 25° 270° (W) 07:39:45 437.405
AIST 2 20 Apr 07:39:24 07:42:05 16° 317° (NW) 07:44:39 435.215
JAS-2 20 Apr 07:40:02 07:43:47 15° 303° (WNW) 07:47:02 435.910
GONETS M04 20 Apr 07:55:23 07:58:31 12° 283° (WNW) 08:00:53
STRAND 1 20 Apr 07:55:51 08:00:58 79° 257° (WSW) 08:06:07 437.568
M-CUBED/EXP-1 PRIME 20 Apr 07:57:37 08:00:35 16° 266° (W) 08:03:26 437.505
CUTE-I 20 Apr 08:00:40 08:06:00 79° 102° (ESE) 08:11:20 437.470
SRMSAT 20 Apr 08:07:39 08:09:07 11° 179° (S) 08:10:36 437.500
Cubesat XI-IV 20 Apr 08:08:22 08:13:43 87° 288° (WNW) 08:19:03 437.490
BRITE-PL 20 Apr 08:40:27 08:42:55 14° 90° (E) 08:45:45 437.365/2234.400
PRISM 20 Apr 08:46:23 08:48:40 14° 269° (W) 08:50:45 437.425
CUBESAT XI-V 20 Apr 08:47:09 08:48:50 11° 272° (W) 08:50:13 437.345
GOMX 1 20 Apr 08:59:49 09:02:28 15° 90° (E) 09:05:27 467.674
Cosmos 2499 20 Apr 09:07:02 09:12:44 21° 278° (W) 09:17:50 435.465 / 435.565
Cosmos 2491 20 Apr 09:35:20 09:39:12 14° 57° (ENE) 09:43:42 435.465 / 435.565
COMPASS 1 20 Apr 09:37:45 09:39:58 14° 90° (E) 09:42:22 437.405
CUTE-I 20 Apr 09:42:53 09:45:30 13° 298° (WNW) 09:47:51 437.470
CANX-2 20 Apr 09:50:05 09:53:59 34° 96° (E) 09:57:53 2200.000
Cubesat XI-IV 20 Apr 09:51:25 09:53:08 11° 300° (WNW) 09:54:32 437.490
SEEDS 20 Apr 09:52:24 09:55:59 26° 95° (E) 09:59:36 437.485
O/OREOS (USA 219) 20 Apr 09:53:15 09:57:26 37° 63° (ENE) 10:01:36 437.305
HO-68 20 Apr 09:55:30 10:02:19 44° 99° (E) 10:09:07 435.675
CINEMA 3 20 Apr 09:58:24 10:01:54 20° 92° (E) 10:05:36 145.822/145.860
CUTE 1.7 + AOD 2 20 Apr 10:00:05 10:04:08 39° 97° (E) 10:08:09 437.475
DOVE 4 20 Apr 10:04:42 10:09:28 44° 98° (E) 10:14:28 437.250
BRITE-PL 20 Apr 10:16:58 10:21:48 64° 285° (WNW) 10:27:02 437.365/2234.400
AAUSAT CUBESAT 2 20 Apr 10:24:12 10:28:13 42° 98° (E) 10:32:12 437.432
TIGRISAT 20 Apr 10:28:24 10:31:30 19° 67° (ENE) 10:34:47 435.000
UNISAT 6 20 Apr 10:29:41 10:32:55 21° 67° (ENE) 10:36:21 437.425
ZACube-1 20 Apr 10:31:58 10:34:14 14° 89° (E) 10:36:45 437.345
PCSat 20 Apr 10:34:06 10:39:30 79° 115° (ESE) 10:44:57 145.827
GOMX 1 20 Apr 10:36:03 10:40:58 62° 285° (WNW) 10:46:10 467.674
POLYITAN 1 20 Apr 10:37:24 10:38:33 11° 65° (ENE) 10:39:57 437.675
CUBEBUG 2 20 Apr 10:38:44 10:42:41 26° 94° (E) 10:46:45 437.445
DELFI C3 20 Apr 10:40:05 10:43:09 21° 93° (E) 10:46:17 145.870
YUBILEINY 20 Apr 10:43:53 10:48:13 16° 79° (E) 10:53:10 435.215
Oscar 11 20 Apr 10:44:37 10:48:34 33° 96° (E) 10:52:30 145.826/435.025
DUCHIFAT 1 20 Apr 10:45:20 10:47:14 13° 66° (ENE) 10:49:21 145.980
QB50P1 20 Apr 10:57:42 11:00:35 19° 68° (ENE) 11:03:36 145.935-145.965
BUGSAT 1 20 Apr 11:07:06 11:09:27 16° 67° (ENE) 11:11:57 437.445
DX 1 20 Apr 11:08:16 11:11:24 20° 93° (E) 11:14:40 434.975-435.025
ANTELSAT 20 Apr 11:10:11 11:14:31 55° 74° (ENE) 11:19:01 437.575/2403.000
COMPASS 1 20 Apr 11:11:55 11:15:57 43° 287° (WNW) 11:19:55 437.405
HUMSAT D 20 Apr 11:16:11 11:19:16 19° 92° (E) 11:22:28 437.325/437.525
UWE-3 20 Apr 11:17:28 11:22:05 55° 100° (E) 11:26:42 435.000/436.395/437.385
QB50P2 20 Apr 11:20:31 11:24:17 34° 72° (ENE) 11:28:08 145.880/145.840
CANX-2 20 Apr 11:26:33 11:29:43 20° 292° (WNW) 11:32:46 2200.000
SEEDS 20 Apr 11:28:14 11:31:43 24° 290° (WNW) 11:35:06 437.485
Cosmos 2491 20 Apr 11:29:11 11:38:02 74° 80° (E) 11:46:52 435.465 / 435.565
O/OREOS (USA 219) 20 Apr 11:33:23 11:36:36 19° 258° (WSW) 11:39:40 437.305
CINEMA 3 20 Apr 11:34:37 11:39:18 44° 287° (WNW) 11:44:02 145.822/145.860
CUTE 1.7 + AOD 2 20 Apr 11:36:54 11:39:46 17° 292° (WNW) 11:42:29 437.475
NANOSAT C BR1 20 Apr 11:42:38 11:46:45 60° 74° (ENE) 11:50:54 145.865
POPSAT HIP 1 20 Apr 11:42:58 11:47:06 61° 75° (ENE) 11:51:16 437.405
DOVE 4 20 Apr 11:43:12 11:47:00 21° 292° (WNW) 11:50:46 437.250
HO-68 20 Apr 11:43:30 11:49:54 35° 296° (WNW) 11:56:09 435.675
FUNcube-1 20 Apr 11:43:31 11:48:08 84° 102° (ESE) 11:52:44 145.935
VELOX 1 20 Apr 11:50:44 11:54:27 26° 95° (E) 11:58:13 145.980
50 SAT 20 Apr 11:52:07 11:55:39 29° 96° (E) 11:59:13 437.505
UKube-1 20 Apr 11:59:12 12:03:32 71° 102° (ESE) 12:07:51 .
AAUSAT CUBESAT 2 20 Apr 12:00:57 12:03:32 15° 293° (WNW) 12:05:56 437.432
TIGRISAT 20 Apr 12:03:50 12:07:59 38° 263° (W) 12:12:14 435.000
UNISAT 6 20 Apr 12:05:22 12:09:29 36° 263° (W) 12:13:41 437.425
AISAT 20 Apr 12:05:46 12:09:57 40° 98° (E) 12:14:10 437.250
ZACube-1 20 Apr 12:06:29 12:10:59 54° 286° (WNW) 12:15:28 437.345
POLYITAN 1 20 Apr 12:09:50 12:14:00 63° 259° (W) 12:18:12 437.675
CUBEBUG 1 20 Apr 12:14:13 12:17:37 22° 94° (E) 12:21:06 437.445
DELFI C3 20 Apr 12:14:50 12:18:19 27° 289° (WNW) 12:21:43 145.870
CUBEBUG 2 20 Apr 12:15:12 12:19:23 31° 289° (WNW) 12:23:31 437.445
DUCHIFAT 1 20 Apr 12:18:36 12:22:41 51° 260° (W) 12:26:48 145.980
PCSat 20 Apr 12:20:04 12:23:38 17° 316° (NW) 12:27:02 145.827
Oscar 11 20 Apr 12:21:16 12:24:33 21° 292° (WNW) 12:27:43 145.826/435.025
ESTCUBE 1 20 Apr 12:23:35 12:27:37 33° 96° (E) 12:31:41 437.505/2401.250
QB50P1 20 Apr 12:32:24 12:36:15 34° 263° (W) 12:40:06 145.935-145.965
YUBILEINY 20 Apr 12:35:04 12:43:55 86° 96° (E) 12:52:47 435.215
BUGSAT 1 20 Apr 12:40:53 12:44:40 38° 262° (W) 12:48:26 437.445
DX 1 20 Apr 12:43:49 12:47:46 34° 289° (WNW) 12:51:41 434.975-435.025
ANTELSAT 20 Apr 12:49:36 12:51:47 13° 271° (W) 12:53:44 437.575/2403.000
HUMSAT D 20 Apr 12:51:11 12:55:09 34° 288° (WNW) 12:59:03 437.325/437.525
UWE-3 20 Apr 12:55:24 12:58:12 15° 294° (WNW) 13:00:49 435.000/436.395/437.385
QB50P2 20 Apr 12:57:18 13:00:20 18° 268° (W) 13:03:14 145.880/145.840
Cosmos 2504 20 Apr 13:19:01 13:23:02 15° 78° (ENE) 13:27:44 435.465 / 435.565
NANOSAT C BR1 20 Apr 13:22:21 13:23:05 10° 272° (W) 13:23:31 145.865
POPSAT HIP 1 20 Apr 13:22:56 13:23:29 10° 272° (W) 13:23:45 437.405
FUNcube-1 20 Apr 13:23:30 13:23:52 10° 297° (WNW) 13:23:58 145.935
VELOX 1 20 Apr 13:27:14 13:30:58 26° 291° (WNW) 13:34:38 145.980
50 SAT 20 Apr 13:27:16 13:30:21 20° 291° (WNW) 13:33:19 437.505
Cosmos 2491 20 Apr 13:27:39 13:34:07 22° 278° (W) 13:40:10 435.465 / 435.565
AIST 1 20 Apr 13:31:26 13:35:43 79° 82° (E) 13:39:59
Oscar 19 20 Apr 13:35:23 13:39:54 33° 69° (ENE) 13:44:32 437.125/150
UKube-1 20 Apr 13:38:09 13:39:10 11° 296° (WNW) 13:39:55 .
AISAT 20 Apr 13:43:12 13:46:18 18° 293° (WNW) 13:49:16 437.250
SO-50 20 Apr 13:44:17 13:48:47 55° 117° (ESE) 13:53:29 436.795
CUBEBUG 1 20 Apr 13:50:13 13:54:01 30° 289° (WNW) 13:57:46 437.445
TISAT 1 20 Apr 13:50:14 13:54:24 56° 100° (E) 13:58:35 437.305
Gurwin Techsat 1B 20 Apr 13:53:50 13:56:18 14° 62° (ENE) 13:59:02 435.225
SPROUT 20 Apr 13:57:43 14:02:03 88° 103° (ESE) 14:06:23 437.525
BEESAT 2 20 Apr 13:58:08 14:02:09 49° 55° (NE) 14:06:06 435.950
ITAMSAT 1 20 Apr 13:58:10 14:01:27 18° 64° (ENE) 14:04:54 435.822/435.867
ESTCUBE 1 20 Apr 14:00:51 14:04:21 22° 292° (WNW) 14:07:43 437.505/2401.250
BEESAT 3 20 Apr 14:04:28 14:08:34 70° 57° (ENE) 14:12:35 437.485
ITUPSAT 1 20 Apr 14:18:20 14:21:18 17° 91° (E) 14:24:27 437.325
AIST 2 20 Apr 14:21:59 14:25:43 30° 50° (NE) 14:29:26 435.215
